Change the Weather History Date:

Wednesday, September 4, 2013

  Actual Average (KSKX) Record (KSKX)
Temperature  
Mean Temperature 60 °F -  
Max Temperature 79 °F 77 °F 87 °F (2000)
Min Temperature 41 °F 43 °F 37 °F (1999)
Degree Days  
Heating Degree Days 5    
Growing Degree Days 10 (Base 50)    
Moisture  
Dew Point 43 °F    
Average Humidity 65    
Maximum Humidity 98    
Minimum Humidity 21    
Precipitation  
Precipitation 0.00 in - - ()
Sea Level Pressure  
Sea Level Pressure 30.51 in    
Wind  
Wind Speed 1 mph (SE)    
Max Wind Speed 13 mph    
Max Gust Speed 17 mph    
Visibility 8 miles    
Events Fog    
Averages and records for this station are not official NWS values.
T = Trace of Precipitation, MM = Missing Value Source: NWS Daily Summary

Daily Weather History Graph

Daily Weather History Graph

Search for Another Location

Airport or City:

Trip Planner

Search our weather history database for the weather conditions in past years. The results will help you decide how hot, cold, wet, or windy it might be!

Date:

Astronomy

Sep. 04, 2013 Rise Set
Actual Time 6:35 AM MDT 7:24 PM MDT
Civil Twilight 6:08 AM MDT 7:50 PM MDT
Nautical Twilight 5:37 AM MDT 8:21 PM MDT
Astronomical Twilight 5:05 AM MDT 8:53 PM MDT
Moon 5:49 AM MDT (9/4) 6:46 PM MDT (9/4)
Length of Visible Light 13h 41m
Length of Day
12h 49m
Waning Crescent, 1% of the Moon is Illuminated
Sep 4
Waning Crescent
Sep 5
New
Sep 12
First Quarter
Sep 19
Full
Sep 26
Last Quarter

Hourly Weather History & Observations

Time (MDT) Temp. Dew Point Humidity Pressure Visibility Wind Dir Wind Speed Gust Speed Precip Events Conditions
12:15 AM 46.6 °F 45.1 °F 95% 30.49 in 10.0 mi Calm Calm - N/A   Clear
12:35 AM 45.5 °F 44.1 °F 95% 30.50 in 10.0 mi Calm Calm - N/A   Clear
12:55 AM 45.5 °F 44.1 °F 95% 30.50 in 10.0 mi Calm Calm - N/A   Clear
1:15 AM 44.8 °F 43.3 °F 95% 30.51 in 10.0 mi Calm Calm - N/A   Clear
1:35 AM 45.5 °F 44.6 °F 97% 30.50 in 10.0 mi Calm Calm - N/A   Clear
1:55 AM 44.2 °F 43.0 °F 95% 30.51 in 10.0 mi Calm Calm - N/A   Clear
2:15 AM 43.2 °F 42.1 °F 96% 30.51 in 10.0 mi Calm Calm - N/A   Clear
2:35 AM 43.5 °F 42.3 °F 95% 30.51 in 10.0 mi Calm Calm - N/A   Clear
2:55 AM 44.1 °F 42.8 °F 95% 30.51 in 10.0 mi Calm Calm - N/A   Clear
3:15 AM 42.6 °F 41.4 °F 95% 30.51 in 10.0 mi Calm Calm - N/A   Clear
3:35 AM 43.3 °F 42.3 °F 96% 30.52 in 10.0 mi Calm Calm - N/A   Scattered Clouds
3:55 AM 43.0 °F 41.9 °F 96% 30.52 in 1.0 mi Calm Calm - N/A   Overcast
4:15 AM 42.8 °F 41.9 °F 97% 30.52 in 0.2 mi Calm Calm - N/A Fog Fog
4:35 AM 43.2 °F 42.3 °F 97% 30.52 in 0.2 mi Calm Calm - N/A Fog Fog
4:55 AM 42.3 °F 41.4 °F 97% 30.52 in 0.2 mi Calm Calm - N/A Fog Fog
5:15 AM 42.6 °F 41.9 °F 97% 30.52 in 0.2 mi Calm Calm - N/A Fog Fog
5:35 AM 42.8 °F 41.9 °F 97% 30.53 in 0.2 mi Calm Calm - N/A Fog Fog
5:55 AM 42.1 °F 41.4 °F 97% 30.53 in 0.5 mi Calm Calm - N/A Fog Fog
6:15 AM 42.1 °F 41.4 °F 97% 30.53 in 0.2 mi Calm Calm - N/A Fog Fog
6:35 AM 42.6 °F 41.9 °F 97% 30.53 in 0.2 mi Calm Calm - N/A Fog Fog
6:55 AM 41.9 °F 41.2 °F 97% 30.54 in 0.2 mi Calm Calm - N/A Fog Fog
7:15 AM 42.8 °F 41.9 °F 97% 30.54 in 0.2 mi Calm Calm - N/A Fog Fog
7:35 AM 42.8 °F 42.3 °F 98% 30.54 in 0.2 mi Calm Calm - N/A Fog Fog
7:55 AM 43.9 °F 43.3 °F 98% 30.55 in 0.2 mi Calm Calm - N/A Fog Fog
8:15 AM 44.6 °F 43.9 °F 97% 30.55 in 0.2 mi Calm Calm - N/A Fog Fog
8:35 AM 46.4 °F 45.7 °F 97% 30.55 in 0.2 mi Calm Calm - N/A Fog Fog
8:55 AM 48.4 °F 47.8 °F 98% 30.55 in 0.5 mi Calm Calm - N/A Fog Fog
9:15 AM 51.4 °F 50.7 °F 97% 30.55 in 10.0 mi Calm Calm - N/A   Scattered Clouds
9:35 AM 54.5 °F 53.2 °F 96% 30.55 in 10.0 mi Calm Calm - N/A   Clear
9:55 AM 57.9 °F 52.2 °F 81% 30.55 in 10.0 mi Calm Calm - N/A   Clear
10:15 AM 60.3 °F 53.1 °F 77% 30.54 in 10.0 mi Calm Calm - N/A   Clear
10:35 AM 63.0 °F 53.1 °F 70% 30.54 in 10.0 mi Calm Calm - N/A   Clear
10:55 AM 66.9 °F 50.4 °F 55% 30.53 in 10.0 mi Calm Calm - N/A   Clear
11:15 AM 69.8 °F 49.1 °F 48% 30.53 in 10.0 mi Calm Calm - N/A   Clear
11:35 AM 71.8 °F 46.9 °F 41% 30.52 in 10.0 mi Calm Calm - N/A   Clear
11:55 AM 72.9 °F 44.4 °F 36% 30.52 in 10.0 mi Calm Calm - N/A   Clear
12:15 PM 74.1 °F 46.2 °F 37% 30.51 in 10.0 mi Calm Calm - N/A   Clear
12:35 PM 75.6 °F 44.6 °F 33% 30.51 in 10.0 mi SW 4.6 mph - N/A   Clear
12:55 PM 76.5 °F 45.5 °F 33% 30.50 in 10.0 mi SSW 4.6 mph - N/A   Scattered Clouds
1:15 PM 75.2 °F 43.2 °F 32% 30.50 in 10.0 mi SE 3.5 mph - N/A   Mostly Cloudy
1:35 PM 77.2 °F 45.0 °F 32% 30.50 in 10.0 mi SSE 6.9 mph - N/A   Scattered Clouds
1:55 PM 77.7 °F 44.2 °F 30% 30.50 in 10.0 mi SE 10.4 mph - N/A   Clear
2:15 PM 77.9 °F 43.3 °F 29% 30.50 in 10.0 mi SSE 6.9 mph 16.1 mph N/A   Clear
2:35 PM 78.4 °F 42.3 °F 28% 30.49 in 10.0 mi ESE 4.6 mph - N/A   Clear
2:55 PM 79.3 °F 39.4 °F 24% 30.48 in 10.0 mi East 9.2 mph - N/A   Clear
3:15 PM 78.8 °F 35.4 °F 21% 30.48 in 10.0 mi East 6.9 mph 12.7 mph N/A   Clear
3:35 PM 79.2 °F 37.2 °F 22% 30.48 in 10.0 mi East 10.4 mph - N/A   Clear
3:55 PM 79.2 °F 36.9 °F 22% 30.48 in 10.0 mi East 4.6 mph 9.2 mph N/A   Clear
4:15 PM 79.3 °F 39.7 °F 24% 30.47 in 10.0 mi East 5.8 mph - N/A   Clear
4:35 PM 78.4 °F 38.7 °F 24% 30.47 in 10.0 mi SSE 8.1 mph - N/A   Clear
4:55 PM 78.3 °F 37.4 °F 23% 30.47 in 10.0 mi East 12.7 mph 17.3 mph N/A   Scattered Clouds
5:15 PM 77.9 °F 37.2 °F 23% 30.47 in 10.0 mi East 9.2 mph - N/A   Clear
5:35 PM 77.2 °F 37.9 °F 24% 30.47 in 10.0 mi ESE 6.9 mph - N/A   Clear
5:55 PM 76.5 °F 36.7 °F 24% 30.47 in 10.0 mi East 9.2 mph - N/A   Clear
6:15 PM 75.4 °F 36.5 °F 24% 30.47 in 10.0 mi SE 6.9 mph - N/A   Clear
6:35 PM 73.8 °F 38.5 °F 28% 30.48 in 10.0 mi SSE 9.2 mph - N/A   Clear
6:55 PM 71.6 °F 37.4 °F 29% 30.48 in 10.0 mi SE 8.1 mph - N/A   Clear
7:15 PM 68.4 °F 40.5 °F 36% 30.48 in 10.0 mi SSE 3.5 mph - N/A   Clear
7:35 PM 64.2 °F 42.8 °F 46% 30.49 in 10.0 mi South 3.5 mph - N/A   Clear
7:55 PM 59.5 °F 45.1 °F 59% 30.49 in 10.0 mi Calm Calm - N/A   Clear
8:15 PM 58.3 °F 44.4 °F 60% 30.50 in 10.0 mi Calm Calm - N/A   Clear
8:35 PM 57.0 °F 44.2 °F 62% 30.52 in 10.0 mi Calm Calm - N/A   Clear
8:55 PM 55.6 °F 44.1 °F 65% 30.53 in 10.0 mi Calm Calm - N/A   Clear
9:15 PM 54.7 °F 43.9 °F 67% 30.53 in 10.0 mi Calm Calm - N/A   Clear
9:35 PM 53.1 °F 43.3 °F 70% 30.53 in 10.0 mi Calm Calm - N/A   Clear
9:55 PM 53.6 °F 41.5 °F 64% 30.54 in 10.0 mi Calm Calm - N/A   Clear
10:15 PM 52.5 °F 41.9 °F 67% 30.55 in 10.0 mi Calm Calm - N/A   Clear
10:35 PM 53.6 °F 40.8 °F 62% 30.55 in 10.0 mi Calm Calm - N/A   Clear
10:55 PM 52.5 °F 40.5 °F 64% 30.55 in 10.0 mi Calm Calm - N/A   Clear
11:15 PM 51.1 °F 40.8 °F 68% 30.55 in 10.0 mi Calm Calm - N/A   Clear
11:35 PM 49.1 °F 40.5 °F 72% 30.55 in 10.0 mi Calm Calm - N/A   Clear
11:55 PM 48.7 °F 40.5 °F 73% 30.56 in 10.0 mi Calm Calm - N/A   Clear